Date,TemperatureHighF,TemperatureAvgF,TemperatureLowF,DewpointHighF,DewpointAvgF,DewpointLowF,HumidityHigh,HumidityAvg,HumidityLow,PressureMaxIn,PressureMinIn,WindSpeedMaxMPH,WindSpeedAvgMPH,GustSpeedMaxMPH,PrecipitationSumIn
2013-4-1,33.7,29.4,25.6,29.0,16.3,12.0,83,59,44,30.09,29.70,15,7,24,0.00
2013-4-2,38.7,29.6,19.3,20.0,15.2,9.0,88,58,31,30.25,30.08,12,4,18,0.00
2013-4-3,43.8,29.8,15.9,21.0,16.2,12.0,89,60,33,30.44,30.25,10,2,15,0.00
2013-4-4,55.0,40.1,26.7,28.0,21.7,17.0,78,50,29,30.34,29.91,19,6,24,0.00
2013-4-5,45.2,37.0,30.0,32.0,23.6,15.0,86,61,30,30.21,29.95,12,4,19,0.00
2013-4-6,50.7,38.9,28.9,29.0,23.5,20.0,83,56,36,30.23,29.69,18,6,22,0.00
2013-4-7,56.2,45.0,34.8,48.0,36.2,30.0,86,72,47,30.04,29.51,20,6,27,0.00
2013-4-8,46.2,39.2,28.3,44.0,36.8,26.0,96,91,70,30.03,29.67,9,2,11,0.66
2013-4-9,42.5,39.5,35.9,42.0,38.5,35.0,97,96,95,30.09,29.90,14,3,18,1.55
2013-4-10,37.8,36.8,35.8,37.0,34.8,32.0,95,92,85,30.07,29.91,23,8,24,0.48
2013-4-11,37.0,34.0,32.6,33.0,32.0,31.0,96,92,84,30.04,29.71,18,8,25,0.96
2013-4-12,41.7,36.3,32.3,37.0,33.9,31.0,96,91,76,29.73,29.56,13,6,17,0.51
2013-4-13,41.2,36.6,34.1,35.0,30.7,26.0,93,80,61,29.97,29.73,19,7,25,0.02
2013-4-14,45.9,38.1,27.2,34.5,30.6,25.4,95,75,59,30.11,29.91,12,3,12,0.00
2013-4-15,68.0,52.3,33.3,55.8,45.4,31.2,94,78,62,29.91,29.79,20,5,20,0.16
2013-4-16,57.4,49.5,41.2,52.2,39.9,33.3,95,72,41,30.26,29.85,17,5,19,0.69
2013-4-17,47.2,41.6,36.7,39.9,36.5,32.0,94,82,71,30.37,30.04,18,5,20,0.60
2013-4-18,69.5,53.7,41.6,64.3,51.1,39.4,96,91,79,30.04,29.38,24,5,28,1.48
2013-4-19,61.2,42.5,34.3,57.0,37.4,27.3,95,82,66,29.68,29.31,34,12,38,0.39
2013-4-20,37.6,32.3,27.1,29.3,21.1,16.9,86,64,50,30.46,29.68,21,6,21,0.00
2013-4-21,50.4,37.4,22.2,30.5,24.0,17.8,86,60,38,30.64,30.45,14,3,15,0.00
2013-4-22,63.8,48.2,33.5,40.2,31.0,24.3,80,54,28,30.46,30.16,13,3,12,0.00
2013-4-23,62.0,52.1,41.2,53.0,43.0,33.3,95,72,52,30.17,29.77,19,4,19,0.39
2013-4-24,47.2,38.5,32.8,38.2,31.0,23.9,94,76,45,30.08,29.82,16,5,17,0.43
2013-4-25,49.9,40.9,34.4,39.8,30.6,25.3,91,68,41,30.32,30.03,21,5,21,0.05
2013-4-26,61.6,46.5,27.3,39.9,33.6,25.3,95,64,40,30.42,30.26,18,4,19,0.00
2013-4-27,70.8,57.5,41.9,47.2,40.2,36.2,80,55,30,30.29,30.08,14,4,14,0.00
2013-4-28,65.8,54.4,44.3,52.5,45.3,36.8,94,72,51,30.08,29.83,16,2,16,0.00
2013-4-29,70.9,60.8,52.0,56.0,52.9,50.3,96,77,53,29.90,29.82,13,2,0,0.01
2013-4-30,74.0,62.7,56.0,59.4,55.5,52.1,92,78,58,30.00,29.86,22,6,23,0.27